Time,TemperatureF,DewpointF,PressureIn,WindDirection,WindDirectionDegrees,WindSpeedMPH,WindSpeedGustMPH,Humidity,HourlyPrecipIn,Conditions,Clouds,dailyrainin,SoftwareType,DateUTC
2013-01-21 00:04:00,69.0,68.0,30.07,SSE,156,0.0,1.0,95,0.00,,,0.01,,2013-01-21 05:04:00,
2013-01-21 00:12:00,69.0,68.0,30.07,SSE,156,0.0,1.0,95,0.00,,,0.01,,2013-01-21 05:12:00,
2013-01-21 00:22:00,69.0,68.0,30.07,SSE,156,0.0,1.0,95,0.00,,,0.01,,2013-01-21 05:22:00,
2013-01-21 00:34:00,69.0,67.0,30.06,SSE,155,0.0,1.0,94,0.00,,,0.01,,2013-01-21 05:34:00,
2013-01-21 00:42:00,69.0,67.0,30.06,SSE,155,0.0,1.0,94,0.00,,,0.01,,2013-01-21 05:42:00,
2013-01-21 00:53:00,69.0,67.0,30.06,SSE,157,0.0,1.0,94,0.00,,,0.01,,2013-01-21 05:53:00,
2013-01-21 01:03:00,69.0,67.0,30.06,SSE,157,0.0,1.0,94,0.00,,,0.01,,2013-01-21 06:03:00,
2013-01-21 01:13:00,69.0,67.0,30.06,SSE,157,0.0,1.0,94,0.00,,,0.01,,2013-01-21 06:13:00,
2013-01-21 01:23:00,69.0,67.0,30.06,SSE,156,0.0,1.0,94,0.00,,,0.01,,2013-01-21 06:23:00,
2013-01-21 01:33:00,69.0,67.0,30.06,SSE,155,0.0,1.0,94,0.00,,,0.01,,2013-01-21 06:33:00,
2013-01-21 01:43:00,69.0,67.0,30.06,SSE,155,0.0,1.0,94,0.00,,,0.01,,2013-01-21 06:43:00,
2013-01-21 01:53:00,69.0,67.0,30.06,SSE,156,0.0,1.0,94,0.00,,,0.01,,2013-01-21 06:53:00,
2013-01-21 02:03:00,69.0,68.0,30.06,SSE,156,0.0,1.0,95,0.00,,,0.01,,2013-01-21 07:03:00,
2013-01-21 02:13:00,69.0,68.0,30.06,SSE,156,0.0,1.0,95,0.00,,,0.01,,2013-01-21 07:13:00,
2013-01-21 02:23:00,69.0,68.0,30.05,SSE,156,0.0,1.0,95,0.00,,,0.01,,2013-01-21 07:23:00,
2013-01-21 02:33:00,69.0,68.0,30.04,SSE,157,0.0,1.0,95,0.00,,,0.01,,2013-01-21 07:33:00,
2013-01-21 02:42:00,69.0,68.0,30.04,SSE,157,0.0,1.0,95,0.00,,,0.01,,2013-01-21 07:42:00,
2013-01-21 02:53:00,68.0,67.0,30.04,SSE,157,0.0,1.0,95,0.00,,,0.01,,2013-01-21 07:53:00,
2013-01-21 03:03:00,68.0,67.0,30.03,SSE,155,0.0,2.0,96,0.00,,,0.01,,2013-01-21 08:03:00,
2013-01-21 03:14:00,68.0,67.0,30.03,SSE,155,0.0,2.0,96,0.00,,,0.01,,2013-01-21 08:14:00,
2013-01-21 03:23:00,68.0,67.0,30.03,SSE,157,0.0,1.0,96,0.00,,,0.01,,2013-01-21 08:23:00,
2013-01-21 03:33:00,68.0,67.0,30.04,SSE,157,0.0,0.0,95,0.00,,,0.01,,2013-01-21 08:33:00,
2013-01-21 03:42:00,68.0,67.0,30.04,SSE,157,0.0,0.0,95,0.00,,,0.01,,2013-01-21 08:42:00,
2013-01-21 03:53:00,68.0,67.0,30.04,SSE,156,0.0,0.0,96,0.00,,,0.01,,2013-01-21 08:53:00,
2013-01-21 04:03:00,68.0,67.0,30.04,SSE,156,0.0,0.0,96,0.00,,,0.01,,2013-01-21 09:03:00,
2013-01-21 04:12:00,68.0,67.0,30.04,SSE,156,0.0,0.0,96,0.00,,,0.01,,2013-01-21 09:12:00,
2013-01-21 04:23:00,68.0,67.0,30.04,SSE,157,0.0,0.0,96,0.00,,,0.01,,2013-01-21 09:23:00,
2013-01-21 04:33:00,68.0,67.0,30.03,SSE,157,0.0,0.0,96,0.00,,,0.01,,2013-01-21 09:33:00,
2013-01-21 04:42:00,68.0,67.0,30.03,SSE,157,0.0,0.0,96,0.00,,,0.01,,2013-01-21 09:42:00,
2013-01-21 04:53:00,67.0,66.0,30.03,SSE,156,0.0,0.0,96,0.00,,,0.01,,2013-01-21 09:53:00,
2013-01-21 05:02:00,67.0,66.0,30.03,SSE,156,0.0,0.0,96,0.00,,,0.01,,2013-01-21 10:02:00,
2013-01-21 05:12:00,67.0,66.0,30.03,SSE,156,0.0,0.0,96,0.00,,,0.01,,2013-01-21 10:12:00,
2013-01-21 05:22:00,67.0,66.0,30.02,SSE,155,0.0,1.0,97,0.00,,,0.01,,2013-01-21 10:22:00,
2013-01-21 05:32:00,67.0,66.0,30.03,SSE,155,0.0,0.0,96,0.00,,,0.01,,2013-01-21 10:32:00,
2013-01-21 05:43:00,67.0,66.0,30.03,SSE,155,0.0,0.0,96,0.00,,,0.01,,2013-01-21 10:43:00,
2013-01-21 05:53:00,67.0,66.0,30.03,SSE,155,0.0,0.0,97,0.00,,,0.01,,2013-01-21 10:53:00,
2013-01-21 06:03:00,67.0,66.0,30.03,SSE,155,0.0,0.0,97,0.00,,,0.01,,2013-01-21 11:03:00,
2013-01-21 06:13:00,67.0,66.0,30.03,SSE,155,0.0,0.0,97,0.00,,,0.01,,2013-01-21 11:13:00,
2013-01-21 06:23:00,67.0,66.0,30.03,SSE,156,0.0,0.0,97,0.00,,,0.01,,2013-01-21 11:23:00,
2013-01-21 06:33:00,67.0,66.0,30.04,SSE,157,0.0,0.0,97,0.00,,,0.01,,2013-01-21 11:33:00,
2013-01-21 06:43:00,67.0,66.0,30.04,SSE,157,0.0,0.0,97,0.00,,,0.01,,2013-01-21 11:43:00,
2013-01-21 06:53:00,67.0,66.0,30.04,SSE,156,0.0,0.0,97,0.00,,,0.01,,2013-01-21 11:53:00,
2013-01-21 07:02:00,67.0,66.0,30.04,SSE,156,0.0,0.0,97,0.00,,,0.01,,2013-01-21 12:02:00,
2013-01-21 07:12:00,67.0,66.0,30.04,SSE,156,0.0,0.0,97,0.00,,,0.01,,2013-01-21 12:12:00,
2013-01-21 07:22:00,67.0,66.0,30.05,SSE,158,0.0,0.0,98,0.00,,,0.00,,2013-01-21 12:22:00,
2013-01-21 07:33:00,67.0,66.0,30.06,SSE,158,0.0,0.0,98,0.00,,,0.00,,2013-01-21 12:33:00,
2013-01-21 07:42:00,67.0,66.0,30.06,SSE,158,0.0,0.0,98,0.00,,,0.00,,2013-01-21 12:42:00,
2013-01-21 07:53:00,67.0,66.0,30.05,SSE,158,0.0,0.0,97,0.00,,,0.00,,2013-01-21 12:53:00,
2013-01-21 08:03:00,67.0,66.0,30.06,SSE,158,0.0,0.0,97,0.00,,,0.00,,2013-01-21 13:03:00,
2013-01-21 08:13:00,67.0,66.0,30.06,SSE,158,0.0,0.0,97,0.00,,,0.00,,2013-01-21 13:13:00,
2013-01-21 08:23:00,68.0,67.0,30.06,SSE,158,0.0,0.0,98,0.00,,,0.00,,2013-01-21 13:23:00,
2013-01-21 08:33:00,69.0,68.0,30.07,SSE,156,0.0,0.0,97,0.00,,,0.00,,2013-01-21 13:33:00,
2013-01-21 08:43:00,69.0,68.0,30.07,SSE,156,0.0,0.0,97,0.00,,,0.00,,2013-01-21 13:43:00,
2013-01-21 08:53:00,69.0,68.0,30.08,SSE,159,0.0,0.0,97,0.00,,,0.00,,2013-01-21 13:53:00,
2013-01-21 09:03:00,70.0,69.0,30.08,SSE,159,0.0,0.0,97,0.00,,,0.00,,2013-01-21 14:03:00,
2013-01-21 09:12:00,70.0,69.0,30.08,SSE,159,0.0,0.0,97,0.00,,,0.00,,2013-01-21 14:12:00,
2013-01-21 09:23:00,71.0,70.0,30.08,SSE,160,0.0,0.0,96,0.00,,,0.00,,2013-01-21 14:23:00,
2013-01-21 09:32:00,72.0,70.0,30.08,SSE,159,0.0,0.0,95,0.00,,,0.00,,2013-01-21 14:32:00,
2013-01-21 09:43:00,72.0,70.0,30.08,SSE,159,0.0,0.0,95,0.00,,,0.00,,2013-01-21 14:43:00,
2013-01-21 09:53:00,74.0,71.0,30.09,SSE,159,0.0,0.0,90,0.00,,,0.00,,2013-01-21 14:53:00,
2013-01-21 10:03:00,76.0,71.0,30.09,SE,138,0.0,1.0,85,0.00,,,0.00,,2013-01-21 15:03:00,
2013-01-21 10:13:00,76.0,71.0,30.09,SE,138,0.0,1.0,85,0.00,,,0.00,,2013-01-21 15:13:00,
2013-01-21 10:23:00,76.0,71.0,30.08,SE,136,0.0,1.0,85,0.00,,,0.00,,2013-01-21 15:23:00,
2013-01-21 10:33:00,76.0,70.0,30.09,SE,127,0.0,2.0,82,0.00,,,0.00,,2013-01-21 15:33:00,
2013-01-21 10:43:00,76.0,70.0,30.09,SE,127,0.0,2.0,82,0.00,,,0.00,,2013-01-21 15:43:00,
2013-01-21 10:53:00,77.0,70.0,30.09,SSE,149,1.0,3.0,78,0.00,,,0.00,,2013-01-21 15:53:00,
2013-01-21 11:03:00,78.0,70.0,30.09,SSE,159,0.0,2.0,76,0.00,,,0.00,,2013-01-21 16:03:00,
2013-01-21 11:12:00,78.0,70.0,30.09,SSE,159,0.0,2.0,76,0.00,,,0.00,,2013-01-21 16:12:00,
2013-01-21 11:23:00,80.0,70.0,30.08,SSE,149,0.0,1.0,71,0.00,,,0.00,,2013-01-21 16:23:00,
2013-01-21 11:33:00,80.0,71.0,30.08,SE,136,1.0,4.0,73,0.00,,,0.00,,2013-01-21 16:33:00,
2013-01-21 11:43:00,80.0,71.0,30.08,SE,136,1.0,4.0,73,0.00,,,0.00,,2013-01-21 16:43:00,
2013-01-21 11:53:00,79.0,70.0,30.07,SSE,162,1.0,4.0,73,0.00,,,0.00,,2013-01-21 16:53:00,
2013-01-21 12:03:00,79.0,70.0,30.07,SE,143,0.0,1.0,74,0.00,,,0.00,,2013-01-21 17:03:00,
2013-01-21 12:12:00,79.0,70.0,30.07,SE,143,0.0,1.0,74,0.00,,,0.00,,2013-01-21 17:12:00,
2013-01-21 12:23:00,78.0,69.0,30.06,SE,143,0.0,2.0,74,0.00,,,0.00,,2013-01-21 17:23:00,
2013-01-21 12:33:00,79.0,70.0,30.05,South,183,0.0,4.0,73,0.00,,,0.00,,2013-01-21 17:33:00,
2013-01-21 12:43:00,79.0,70.0,30.05,South,183,0.0,4.0,73,0.00,,,0.00,,2013-01-21 17:43:00,
2013-01-21 12:53:00,79.0,70.0,30.04,SSE,162,0.0,2.0,75,0.00,,,0.00,,2013-01-21 17:53:00,
2013-01-21 13:03:00,80.0,70.0,30.03,SE,146,1.0,5.0,72,0.00,,,0.00,,2013-01-21 18:03:00,
2013-01-21 13:12:00,80.0,70.0,30.03,SE,146,1.0,5.0,72,0.00,,,0.00,,2013-01-21 18:12:00,
2013-01-21 13:23:00,79.0,69.0,30.03,SE,135,1.0,5.0,72,0.00,,,0.00,,2013-01-21 18:23:00,
2013-01-21 13:33:00,80.0,70.0,30.02,South,184,0.0,5.0,72,0.00,,,0.00,,2013-01-21 18:33:00,
2013-01-21 13:43:00,80.0,70.0,30.02,South,184,0.0,5.0,72,0.00,,,0.00,,2013-01-21 18:43:00,
2013-01-21 13:53:00,81.0,69.0,30.01,SE,127,2.0,8.0,68,0.00,,,0.00,,2013-01-21 18:53:00,
2013-01-21 14:03:00,81.0,71.0,30.01,South,190,1.0,4.0,71,0.00,,,0.00,,2013-01-21 19:03:00,
2013-01-21 14:12:00,81.0,70.0,30.00,SSE,162,1.0,5.0,70,0.00,,,0.00,,2013-01-21 19:12:00,
2013-01-21 14:22:00,81.0,70.0,30.00,SSE,162,1.0,5.0,70,0.00,,,0.00,,2013-01-21 19:22:00,
2013-01-21 14:33:00,81.0,72.0,29.99,SE,129,0.0,4.0,73,0.00,,,0.00,,2013-01-21 19:33:00,
2013-01-21 14:43:00,81.0,72.0,29.99,SE,129,0.0,4.0,73,0.00,,,0.00,,2013-01-21 19:43:00,
2013-01-21 14:53:00,80.0,71.0,29.99,SSE,165,1.0,6.0,74,0.00,,,0.00,,2013-01-21 19:53:00,
2013-01-21 15:03:00,79.0,70.0,29.99,South,188,2.0,7.0,75,0.00,,,0.00,,2013-01-21 20:03:00,
2013-01-21 15:12:00,79.0,70.0,29.99,South,188,2.0,7.0,75,0.00,,,0.00,,2013-01-21 20:12:00,
2013-01-21 15:23:00,80.0,70.0,29.98,SSW,211,3.0,7.0,72,0.00,,,0.00,,2013-01-21 20:23:00,
2013-01-21 15:33:00,78.0,70.0,29.98,SSW,195,2.0,8.0,76,0.00,,,0.00,,2013-01-21 20:33:00,
2013-01-21 15:43:00,78.0,70.0,29.98,SSW,195,2.0,8.0,76,0.00,,,0.00,,2013-01-21 20:43:00,
2013-01-21 15:53:00,77.0,70.0,29.98,South,184,2.0,7.0,80,0.00,,,0.00,,2013-01-21 20:53:00,
2013-01-21 16:04:00,77.0,71.0,29.99,South,184,2.0,7.0,81,0.00,,,0.00,,2013-01-21 21:04:00,
2013-01-21 16:12:00,77.0,71.0,29.99,South,184,2.0,7.0,81,0.00,,,0.00,,2013-01-21 21:12:00,
2013-01-21 16:23:00,76.0,69.0,29.99,SSW,195,3.0,6.0,80,0.00,,,0.00,,2013-01-21 21:23:00,
2013-01-21 16:33:00,78.0,71.0,29.99,SSW,193,2.0,4.0,78,0.00,,,0.00,,2013-01-21 21:33:00,
2013-01-21 16:43:00,78.0,71.0,29.99,SSW,193,2.0,4.0,78,0.00,,,0.00,,2013-01-21 21:43:00,
2013-01-21 16:54:00,77.0,70.0,29.99,South,183,1.0,4.0,79,0.00,,,0.00,,2013-01-21 21:54:00,
2013-01-21 17:03:00,77.0,70.0,29.99,South,179,0.0,4.0,79,0.00,,,0.00,,2013-01-21 22:03:00,
2013-01-21 17:13:00,77.0,70.0,29.99,South,179,0.0,4.0,79,0.00,,,0.00,,2013-01-21 22:13:00,
2013-01-21 17:23:00,80.0,72.0,29.99,South,190,1.0,3.0,76,0.00,,,0.00,,2013-01-21 22:23:00,
2013-01-21 17:33:00,79.0,70.0,30.00,SSW,204,1.0,4.0,74,0.00,,,0.00,,2013-01-21 22:33:00,
2013-01-21 17:43:00,79.0,70.0,30.00,SSW,204,1.0,4.0,74,0.00,,,0.00,,2013-01-21 22:43:00,
2013-01-21 17:53:00,78.0,68.0,30.00,WSW,253,3.0,6.0,72,0.00,,,0.00,,2013-01-21 22:53:00,
2013-01-21 18:03:00,77.0,67.0,30.00,WSW,252,5.0,9.0,72,0.00,,,0.00,,2013-01-21 23:03:00,
2013-01-21 18:13:00,77.0,67.0,30.00,WSW,252,5.0,9.0,72,0.00,,,0.00,,2013-01-21 23:13:00,
2013-01-21 18:23:00,77.0,68.0,30.01,West,271,6.0,11.0,73,0.00,,,0.00,,2013-01-21 23:23:00,
2013-01-21 18:33:00,76.0,67.0,30.01,West,262,5.0,8.0,74,0.00,,,0.00,,2013-01-21 23:33:00,
2013-01-21 18:42:00,76.0,67.0,30.01,West,262,5.0,8.0,74,0.00,,,0.00,,2013-01-21 23:42:00,
2013-01-21 18:53:00,75.0,67.0,30.01,WSW,240,4.0,8.0,77,0.00,,,0.00,,2013-01-21 23:53:00,
2013-01-21 19:03:00,75.0,67.0,30.02,West,276,5.0,9.0,77,0.00,,,0.00,,2013-01-22 00:03:00,
2013-01-21 19:12:00,75.0,67.0,30.02,West,276,5.0,9.0,77,0.00,,,0.00,,2013-01-22 00:12:00,
2013-01-21 19:22:00,74.0,67.0,30.02,WSW,242,5.0,10.0,78,0.00,,,0.00,,2013-01-22 00:22:00,
2013-01-21 19:33:00,74.0,67.0,30.03,West,267,5.0,9.0,78,0.00,,,0.00,,2013-01-22 00:33:00,
2013-01-21 19:43:00,74.0,67.0,30.03,West,267,5.0,9.0,78,0.00,,,0.00,,2013-01-22 00:43:00,
2013-01-21 19:53:00,74.0,67.0,30.03,WSW,252,4.0,9.0,79,0.00,,,0.00,,2013-01-22 00:53:00,
2013-01-21 20:02:00,73.0,66.0,30.03,SW,230,3.0,6.0,79,0.00,,,0.00,,2013-01-22 01:02:00,
2013-01-21 20:12:00,73.0,66.0,30.03,SW,230,3.0,6.0,79,0.00,,,0.00,,2013-01-22 01:12:00,
2013-01-21 20:23:00,73.0,67.0,30.04,SW,231,3.0,6.0,81,0.00,,,0.00,,2013-01-22 01:23:00,
2013-01-21 20:33:00,72.0,66.0,30.04,SW,219,2.0,5.0,82,0.00,,,0.00,,2013-01-22 01:33:00,
2013-01-21 20:42:00,72.0,66.0,30.04,SW,219,2.0,5.0,82,0.00,,,0.00,,2013-01-22 01:42:00,
2013-01-21 20:53:00,72.0,67.0,30.04,SW,219,3.0,6.0,83,0.00,,,0.00,,2013-01-22 01:53:00,
2013-01-21 21:02:00,71.0,66.0,30.05,South,181,3.0,6.0,84,0.00,,,0.00,,2013-01-22 02:02:00,
2013-01-21 21:12:00,71.0,66.0,30.05,South,181,3.0,6.0,84,0.00,,,0.00,,2013-01-22 02:12:00,
2013-01-21 21:22:00,71.0,66.0,30.05,South,188,1.0,5.0,85,0.00,,,0.00,,2013-01-22 02:22:00,
2013-01-21 21:32:00,71.0,67.0,30.05,South,187,0.0,5.0,86,0.00,,,0.00,,2013-01-22 02:32:00,
2013-01-21 21:43:00,71.0,67.0,30.05,South,187,0.0,5.0,86,0.00,,,0.00,,2013-01-22 02:43:00,
2013-01-21 21:53:00,71.0,67.0,30.05,South,191,2.0,4.0,86,0.00,,,0.00,,2013-01-22 02:53:00,
2013-01-21 22:03:00,71.0,67.0,30.05,South,188,2.0,6.0,86,0.00,,,0.00,,2013-01-22 03:03:00,
2013-01-21 22:12:00,71.0,67.0,30.05,South,188,2.0,6.0,86,0.00,,,0.00,,2013-01-22 03:12:00,
2013-01-21 22:22:00,70.0,66.0,30.05,South,190,2.0,6.0,87,0.00,,,0.00,,2013-01-22 03:22:00,
2013-01-21 22:32:00,70.0,66.0,30.05,SSW,195,2.0,5.0,88,0.00,,,0.00,,2013-01-22 03:32:00,
2013-01-21 22:42:00,70.0,66.0,30.05,SSW,195,2.0,5.0,88,0.00,,,0.00,,2013-01-22 03:42:00,
2013-01-21 22:53:00,69.0,66.0,30.05,South,191,1.0,7.0,89,0.00,,,0.00,,2013-01-22 03:53:00,
2013-01-21 23:03:00,69.0,66.0,30.06,South,190,2.0,6.0,89,0.00,,,0.00,,2013-01-22 04:03:00,
2013-01-21 23:12:00,69.0,66.0,30.06,South,190,2.0,6.0,89,0.00,,,0.00,,2013-01-22 04:12:00,
2013-01-21 23:22:00,69.0,66.0,30.06,SSW,201,3.0,6.0,91,0.00,,,0.00,,2013-01-22 04:22:00,
2013-01-21 23:33:00,68.0,65.0,30.06,South,186,1.0,4.0,91,0.00,,,0.00,,2013-01-22 04:33:00,
2013-01-21 23:42:00,68.0,65.0,30.06,South,186,1.0,4.0,91,0.00,,,0.00,,2013-01-22 04:42:00,
2013-01-21 23:53:00,68.0,66.0,30.05,South,190,2.0,5.0,92,0.00,,,0.00,,2013-01-22 04:53:00,